Date String (YYYY-MM-DD hh:mm:ss) UTC,Instrument flags,absolute air pressure of the measurement (hPa),sample flow rate (lpm),inlet stack bypass flow (lpm),air temperature of the measurement (°C),ambient temperature measured by the external sensor (°C),aerosol sample conditioner tube jacket temperature (°C),OPC LED temperature (°C),internal box temperature (°C),relative humidity of the measurement (%),span deviation,mass concentration of particles derived from Lorenz-Mie calculation of OPC scattering (μg/m³),mass concentration of particles derived from Lorenz-Mie calculation of OPC scattering (μg/m³),mass concentration of particles derived from Lorenz-Mie calculation of OPC scattering (μg/m³)
DateTimeUTC,F1_M11,P_M11,Q1_M11,Q2_M11,T1_M11,T2_M11,T3_M11,T4_M11,T5_M11,U1_M11,ZSPAN_M11,X2_M11,X0_M11,X1_M11
2023-11-17 12:00:00,SystemResetWarning,0830.0,5.00,000.00,026.3,025.3,000.0,034.7,027.8,18.7,0000.0,0006.61,0011.96,0006.05
2023-11-17 12:01:00,SystemResetWarning,0829.8,4.99,000.00,026.3,025.3,000.0,034.7,027.8,18.7,0000.0,0006.59,0012.08,0006.05
2023-11-17 12:02:00,SystemResetWarning,0829.8,4.99,000.00,026.3,025.3,000.0,034.7,027.8,18.8,0000.0,0006.56,0011.91,0006.05
2023-11-17 12:03:00,SystemResetWarning,0829.9,4.99,000.00,026.3,025.3,000.0,034.7,027.7,18.8,0000.0,0006.54,0012.10,0006.03
2023-11-17 12:04:00,SystemResetWarning,0829.9,5.00,000.00,026.3,025.3,000.0,034.7,027.8,18.8,0000.0,0006.53,0011.89,0006.03
2023-11-17 12:05:00,SystemResetWarning,0830.0,5.01,000.00,026.3,025.3,000.0,034.7,027.7,18.9,0000.0,0006.53,0011.32,0006.04
2023-11-17 12:06:00,SystemResetWarning,0830.0,5.01,000.00,026.3,025.3,000.0,034.7,027.7,18.9,0000.0,0006.54,0011.91,0006.02
2023-11-17 12:07:00,SystemResetWarning,0829.8,5.00,000.00,026.3,025.3,000.0,034.7,027.7,19.0,0000.0,0006.56,0012.14,0006.01
2023-11-17 12:08:00,SystemResetWarning,0829.8,4.99,000.00,026.3,025.3,000.0,034.7,027.7,19.0,0000.0,0006.52,0011.36,0005.99
2023-11-17 12:09:00,SystemResetWarning,0829.9,4.99,000.00,026.3,025.3,000.0,034.7,027.7,19.0,0000.0,0006.48,0011.31,0005.96
2023-11-17 12:10:00,SystemResetWarning,0830.0,5.00,000.00,026.3,025.2,000.0,034.7,027.7,19.0,0000.0,0006.46,0011.09,0005.94
2023-11-17 12:11:00,SystemResetWarning,0830.0,5.00,000.00,026.3,025.2,000.0,034.7,027.7,19.1,0000.0,0006.41,0010.59,0005.92
2023-11-17 12:12:00,SystemResetWarning,0830.1,5.01,000.00,026.3,025.2,000.0,034.7,027.6,19.1,0000.0,0006.40,0010.53,0005.90
2023-11-17 12:13:00,SystemResetWarning,0830.0,5.01,000.00,026.3,025.2,000.0,034.7,027.7,19.1,0000.0,0006.39,0010.75,0005.87
2023-11-17 12:14:00,SystemResetWarning,0830.0,5.00,000.00,026.3,025.2,000.0,034.7,027.7,19.1,0000.0,0006.40,0010.79,0005.86
2023-11-17 12:15:00,SystemResetWarning,0829.9,5.00,000.00,026.3,025.2,000.0,034.7,027.7,19.2,0000.0,0006.38,0010.72,0005.83
2023-11-17 12:16:00,SystemResetWarning,0829.9,5.00,000.00,026.2,025.2,000.0,034.7,027.7,19.2,0000.0,0006.39,0010.91,0005.81
2023-11-17 12:17:00,SystemResetWarning,0829.9,4.99,000.00,026.2,025.2,000.0,034.7,027.6,19.2,0000.0,0006.36,0010.71,0005.80
2023-11-17 12:18:00,SystemResetWarning,0830.0,5.00,000.00,026.2,025.2,000.0,034.7,027.6,19.2,0000.0,0006.33,0010.05,0005.78
2023-11-17 12:19:00,SystemResetWarning,0830.0,5.00,000.00,026.2,025.2,000.0,034.6,027.6,19.2,0000.0,0006.31,0009.89,0005.78
2023-11-17 12:20:00,SystemResetWarning,0830.0,5.01,000.00,026.2,025.2,000.0,034.6,027.6,19.3,0000.0,0006.31,0009.90,0005.79
2023-11-17 12:21:00,SystemResetWarning,0829.9,5.00,000.00,026.2,025.1,000.0,034.6,027.6,19.3,0000.0,0006.32,0010.00,0005.79
2023-11-17 12:22:00,SystemResetWarning,0829.9,5.01,000.00,026.2,025.1,000.0,034.6,027.6,19.3,0000.0,0006.31,0010.00,0005.79
2023-11-17 12:23:00,SystemResetWarning,0830.0,5.00,000.00,026.2,025.1,000.0,034.6,027.6,19.3,0000.0,0006.31,0009.74,0005.80
2023-11-17 12:24:00,SystemResetWarning,0830.0,5.00,000.00,026.2,025.2,000.0,034.6,027.7,19.3,0000.0,0006.35,0010.12,0005.83
2023-11-17 12:25:00,SystemResetWarning,0830.0,5.00,000.00,026.2,025.2,000.0,034.6,027.6,19.4,0000.0,0006.33,0010.23,0005.84
2023-11-17 12:26:00,SystemResetWarning,0830.0,5.00,000.00,026.2,025.1,000.0,034.6,027.6,19.4,0000.0,0006.36,0010.24,0005.85
2023-11-17 12:27:00,SystemResetWarning,0830.0,4.99,000.00,026.2,025.1,000.0,034.6,027.6,19.5,0000.0,0006.40,0010.19,0005.87
2023-11-17 12:28:00,SystemResetWarning,0830.0,4.99,000.00,026.1,025.1,000.0,034.6,027.6,19.5,0000.0,0006.44,0010.29,0005.89
2023-11-17 12:29:00,SystemResetWarning,0830.0,5.00,000.00,026.1,025.1,000.0,034.6,027.6,19.6,0000.0,0006.46,0010.32,0005.91
2023-11-17 12:30:00,SystemResetWarning,0830.0,4.99,000.00,026.1,025.1,000.0,034.6,027.6,19.6,0000.0,0006.49,0010.61,0005.93
2023-11-17 12:31:00,SystemResetWarning,0829.8,5.00,000.00,026.1,025.0,000.0,034.6,027.5,19.6,0000.0,0006.54,0010.93,0005.95
2023-11-17 12:32:00,SystemResetWarning,0829.8,5.00,000.00,026.1,025.1,000.0,034.6,027.6,19.7,0000.0,0006.56,0011.28,0005.97
2023-11-17 12:33:00,SystemResetWarning,0829.9,5.01,000.00,026.1,025.1,000.0,034.6,027.5,19.7,0000.0,0006.64,0011.77,0006.00
2023-11-17 12:34:00,SystemResetWarning,0829.8,5.00,000.00,026.1,025.1,000.0,034.6,027.5,19.7,0000.0,0006.67,0011.86,0006.01
2023-11-17 12:35:00,SystemResetWarning,0829.7,5.00,000.00,026.1,025.1,000.0,034.6,027.6,19.7,0000.0,0006.69,0011.48,0006.02
2023-11-17 12:36:00,SystemResetWarning,0829.7,5.00,000.00,026.1,025.1,000.0,034.5,027.6,19.8,0000.0,0006.70,0011.17,0006.04
2023-11-17 12:37:00,SystemResetWarning,0829.8,5.00,000.00,026.1,025.1,000.0,034.5,027.5,19.8,0000.0,0006.70,0011.20,0006.06
2023-11-17 12:38:00,SystemResetWarning,0829.9,5.00,000.00,026.1,025.1,000.0,034.5,027.5,19.8,0000.0,0006.67,0011.53,0006.07
2023-11-17 12:39:00,SystemResetWarning,0829.9,5.00,000.00,026.1,025.1,000.0,034.5,027.5,19.8,0000.0,0006.66,0011.41,0006.09
2023-11-17 12:40:00,SystemResetWarning,0829.8,5.00,000.00,026.1,025.0,000.0,034.5,027.5,19.8,0000.0,0006.67,0011.36,0006.10
2023-11-17 12:41:00,SystemResetWarning,0829.8,5.01,000.00,026.1,025.0,000.0,034.5,027.5,19.8,0000.0,0006.72,0011.28,0006.11
2023-11-17 12:42:00,SystemResetWarning,0829.8,5.01,000.00,026.1,025.0,000.0,034.5,027.6,19.9,0000.0,0006.74,0011.02,0006.12
2023-11-17 12:43:00,SystemResetWarning,0829.7,5.00,000.00,026.1,025.0,000.0,034.5,027.5,19.9,0000.0,0006.77,0010.92,0006.13
2023-11-17 12:44:00,SystemResetWarning,0829.9,5.00,000.00,026.1,025.0,000.0,034.5,027.4,19.9,-000.3,0006.75,0010.36,0006.13
2023-11-17 12:45:00,SystemResetWarning,0829.9,4.99,000.00,026.1,025.0,000.0,034.5,027.4,19.9,-000.1,0006.74,0010.32,0006.14
2023-11-17 12:46:00,SystemResetWarning,0829.9,5.00,000.00,026.1,025.0,000.0,034.5,027.5,20.0,0000.0,0006.71,0010.42,0006.16
2023-11-17 12:47:00,SystemResetWarning,0829.8,5.00,000.00,026.1,025.0,000.0,034.5,027.5,20.0,0000.0,0006.74,0010.36,0006.18
2023-11-17 12:48:00,SystemResetWarning,0829.8,5.01,000.00,026.1,025.0,000.0,034.5,027.4,20.0,0000.0,0006.78,0010.32,0006.21
2023-11-17 12:49:00,SystemResetWarning,0829.8,5.00,000.00,026.1,025.0,000.0,034.5,027.5,19.9,0000.0,0006.79,0009.94,0006.22
2023-11-17 12:50:00,SystemResetWarning,0829.8,5.00,000.00,026.1,025.0,000.0,034.5,027.5,19.9,0000.0,0006.81,0010.02,0006.23
2023-11-17 12:51:00,SystemResetWarning,0829.9,5.00,000.00,026.1,025.0,000.0,034.5,027.5,20.0,0000.0,0006.80,0010.02,0006.24
2023-11-17 12:52:00,SystemResetWarning,0829.9,5.00,000.00,026.1,025.0,000.0,034.5,027.5,20.0,0000.0,0006.81,0010.07,0006.26
2023-11-17 12:53:00,SystemResetWarning,0829.9,5.01,000.00,026.1,025.0,000.0,034.5,027.5,20.0,0000.0,0006.81,0009.96,0006.29
2023-11-17 12:54:00,SystemResetWarning,0829.8,5.01,000.00,026.1,025.0,000.0,034.5,027.5,20.1,0000.0,0006.80,0009.84,0006.31
2023-11-17 12:55:00,SystemResetWarning,0829.8,5.00,000.00,026.1,025.0,000.0,034.5,027.5,20.1,0000.0,0006.82,0009.78,0006.34
2023-11-17 12:56:00,SystemResetWarning,0829.8,5.00,000.00,026.1,025.0,000.0,034.5,027.5,20.3,0000.0,0006.83,0009.91,0006.36
2023-11-17 12:57:00,SystemResetWarning,0829.8,4.99,000.00,026.1,025.0,000.0,034.5,027.5,20.3,0000.0,0006.90,0010.17,0006.41
2023-11-17 12:58:00,SystemResetWarning,0829.9,4.99,000.00,026.1,025.0,000.0,034.5,027.5,20.4,0000.0,0006.95,0010.60,0006.43
2023-11-17 12:59:00,SystemResetWarning,0829.9,4.99,000.00,026.1,025.0,000.0,034.4,027.5,20.5,0000.0,0006.97,0011.37,0006.48
